Quillayute, WA
on Tuesday, November 27, 2012

Tuesday
Previous Day Next Day
Daily Summary
 ActualAverageRecord
Temperature
Mean Temperature °F 42°F  
Max Temperature 53°F 48°F 62°F (2002)
Min Temperature 35°F 36°F 19°F (1985)
Degree Days
Heating Degree Days 21 23  
Month to date heating degree days 555  
Since 1 July heating degree days 1645  
Cooling Degree Days 0 0  
Month to date cooling degree days 0  
Year to date cooling degree days 19  
Moisture
Dew Point 38°F   
Average Humidity 80    
Maximum Humidity 93    
Minimum Humidity 62    
Precipitation
Precipitation 0.00 in 0.52 in 3.50 in (1996)
Month to date precipitation 13.95  
Year to date precipitation 84.98  
Wind
Wind Speed 5 mph   
Max Wind Speed 12 mph   
Max Gust Speed 15 mph   
Visibility 6 miles   
Events     

Key: T is trace of precipitation, MM is missing value
Source: NWS Daily Summary
Time(PST)TemperatureDew PointHumidity Pressure Visibility Wind DirectionWind SpeedGust SpeedPrecipitationEvents Conditions
12:53 AM 36.0°F 33.1°F 89% 30.04 in 7.0 miles Calm Calm - N/A   Partly Cloudy
1:53 AM 36.0°F 34.0°F 93% 30.03 in 7.0 miles East 5.8 mph - N/A   Mostly Cloudy
2:53 AM 37.9°F 34.0°F 86% 30.03 in 7.0 miles East 3.5 mph - N/A   Overcast
3:53 AM 37.9°F 34.0°F 86% 30.02 in 7.0 miles ESE 3.5 mph - N/A   Overcast
4:53 AM 39.9°F 34.0°F 79% 30.01 in 7.0 miles NE 4.6 mph - N/A   Overcast
5:27 AM 39.2°F 33.8°F 81% 30.00 in 7.0 miles ENE 5.8 mph - N/A   Overcast
5:53 AM 39.9°F 35.1°F 83% 30.01 in 7.0 miles ENE 4.6 mph - N/A   Overcast
6:42 AM 39.2°F 35.6°F 87% 30.01 in 7.0 miles ENE 5.8 mph - N/A   Overcast
6:53 AM 39.9°F 35.1°F 83% 30.01 in 6.0 miles ENE 5.8 mph - N/A   Haze
7:29 AM 41.0°F 35.6°F 81% 30.01 in 7.0 miles NE 3.5 mph - N/A   Overcast
7:53 AM 41.0°F 36.0°F 82% 30.02 in 7.0 miles East 3.5 mph - N/A   Overcast
8:12 AM 41.0°F 35.6°F 81% 30.01 in 5.0 miles ENE 8.1 mph - N/A   Haze
8:53 AM 42.1°F 37.0°F 82% 30.02 in 6.0 miles NNE 3.5 mph - N/A   Haze
9:53 AM 43.0°F 37.0°F 80% 30.01 in 6.0 miles East 6.9 mph - N/A   Haze
10:53 AM 46.0°F 39.0°F 76% 30.00 in 6.0 miles ENE 4.6 mph - N/A   Haze
11:53 AM 48.0°F 39.9°F 74% 29.98 in 6.0 miles ENE 5.8 mph - N/A   Haze
12:53 PM 51.1°F 42.1°F 71% 29.97 in 6.0 miles ENE 3.5 mph - N/A   Haze
1:53 PM 53.1°F 43.0°F 69% 29.96 in 6.0 miles Calm Calm - N/A   Haze
2:53 PM 52.0°F 44.1°F 74% 29.93 in 6.0 miles East 3.5 mph - N/A   Haze
3:53 PM 50.0°F 41.0°F 71% 29.92 in 6.0 miles ENE 4.6 mph - N/A   Haze
4:53 PM 48.0°F 39.0°F 71% 29.91 in 7.0 miles Calm Calm - N/A   Overcast
5:53 PM 46.9°F 41.0°F 80% 29.90 in 7.0 miles Calm Calm - N/A   Overcast
6:53 PM 46.0°F 39.9°F 79% 29.89 in 7.0 miles East 3.5 mph - N/A   Overcast
7:53 PM 46.0°F 39.9°F 79% 29.89 in 7.0 miles East 6.9 mph - N/A   Overcast
8:53 PM 46.9°F 42.1°F 83% 29.88 in 7.0 miles ENE 9.2 mph - N/A   Overcast
9:03 PM 48.2°F 42.8°F 82% 29.87 in 7.0 miles East 6.9 mph - N/A   Overcast
9:53 PM 46.0°F 41.0°F 83% 29.86 in 7.0 miles East 10.4 mph - N/A   Overcast
10:53 PM 44.1°F 39.9°F 85% 29.86 in 6.0 miles East 6.9 mph - N/A   Partly Cloudy
11:53 PM 43.0°F 39.0°F 86% 29.86 in 6.0 miles ENE 6.9 mph - N/A   Partly Cloudy
Moon Phase
Nov. 27 Nov. 28 Dec. 06 Dec. 13 Dec. 20
Sunrise:07:42 AM (PST) Moon Rise:04:05 PM (PST)11/27
Sunset:04:29 PM (PST) Moon Set:06:51 AM (PST)11/27

Copyright © 2014 The Weather Underground, Inc.